Flag for Canada Weather past 2 weeks in Granby, Quebec, Canada

Now
16 °F

Cold.


Feels Like: 3 °F
Forecast: 13 / 24 °F
Wind: 12 mph from North

Location: Frelighsburg

Current Time: Mar 28, 2015 at 11:03:04 AM

Latest Report: Mar 28, 2015 at 10:00 AM


Visibility: N/A

Pressure: 29.99 "Hg

Humidity: 60%

Dew point: 4 °F

Location of GranbyLocation

Historic Weather in Granby — Graph

°F

Granby temperature yesterday

Maximum temperature yesterday: 33 °F (at 2:00 AM)
Minimum temperature yesterday: 26 °F (at 11:00 PM)
Average temperature yesterday: 31 °F

Past Weeks' High & Low Weather Summary

 TemperatureHumidityPressure
High47 °F (Mar 25, 5:00 PM)100% (Mar 15, 1:00 AM)30.59 "Hg (Mar 15, 1:00 AM)
Low2 °F (Mar 23, 7:00 AM)20% (Mar 20, 3:00 PM)29.45 "Hg (Mar 17, 11:00 AM)
Average24 °F66%30.01 "Hg
* Reported Mar 13 10:00 AM — Mar 28 10:00 AM, Granby, Weather by CustomWeather, © 2015

Note: Actual official high and low records may vary slightly from our data, if they occured in-between our weather recording intervals... More about our weather records

Advertising

Granby weather history for previous 24 hours

 ConditionsComfort  
Time TempWeatherWind HumidityBarometerVisibility
10:00 AM
Sat, Mar 28
16 °FCold.12 mph60%29.99 "HgN/A
9:00 AM17 °FCold.10 mph56%29.98 "HgN/A
8:00 AM15 °FCold.13 mph64%29.96 "HgN/A
7:00 AM15 °FCold.12 mph63%29.95 "HgN/A
6:00 AM16 °FCold.12 mph59%29.93 "HgN/A
5:00 AM18 °FCold.14 mph55%29.91 "HgN/A
4:00 AM20 °FCold.13 mph62%29.90 "HgN/A
3:00 AM22 °FCold.10 mph64%29.89 "HgN/A
2:00 AM24 °FCold.12 mph68%29.89 "HgN/A
1:00 AM25 °FCold.3 mph95%29.88 "HgN/A
12:00 AM25 °FChilly.5 mph96%29.88 "HgN/A
11:00 PM
Fri, Mar 27
26 °FChilly.2 mph93%29.86 "HgN/A
10:00 PM29 °FChilly.5 mph83%29.85 "HgN/A
9:00 PM28 °FChilly.3 mph77%29.84 "HgN/A
8:00 PM28 °FChilly.3 mph82%29.82 "HgN/A
7:00 PM29 °FChilly.5 mph80%29.80 "HgN/A
6:00 PM30 °FChilly.7 mph77%29.78 "HgN/A
5:00 PM31 °FChilly.8 mph76%29.77 "HgN/A
4:00 PM29 °FChilly.8 mph86%29.75 "HgN/A
3:00 PM29 °FChilly.8 mph93%29.76 "HgN/A
2:00 PM29 °FChilly.10 mph95%29.75 "HgN/A
1:00 PM30 °FChilly.9 mph99%29.74 "HgN/A
12:00 PM30 °FChilly.8 mph100%29.74 "HgN/A
11:00 AM31 °FChilly.9 mph100%29.73 "HgN/A
Weather by CustomWeather, © 2015

See weather overviewHow to use our weather pages